Location: Peterborough
(44.3091°N, 78.3197°W)
Time: 07:31:11
(UTC-04:00)

Vanguard 1 Rocket - Pass Details

Date: 30 March 2023
Orbit: 655 x 4220 km, 34.3° (Epoch: 04 June)

Event Time Altitude Azimuth Distance (km) Brightness Sun altitude
Rises 21:19:11 0° 221° (SW) 8,159 12.5 -18.2°
Reaches altitude 10° 21:25:05 10° 215° (SW) 7,323 12.1 -19.1°
Maximum altitude 21:48:31 45° 153° (SSE) 4,735 10.6 -22.8°
Enters shadow 21:59:15 29° 105° (ESE) 4,895 10.5 -24.4°
Drops below altitude 10° 22:06:05 10° 89° (E) 5,672 - -25.5°
Sets 22:09:52 0° 83° (E) 6,282 - -26.0°
